Theta_e
313 313 313 310 308 310 311 314 316 317 318 319 319 318 317 317 318 319 319 319 320 320 319 317 317 317 317 316 316 316 316 317 317 316 314 311 311 309 308 309 311 311 309 308 308 310 311 312 312 312 312 311 311 312 312 313 315 315 316 316 317 317 317 317 317 317 316 317 314 311 309 310 312 311 310 310 310 310 310 310 311 311 312 313 314 314 314 315
312 313 312 310 309 309 310 313 315 317 317 317 317 316 316 317 319 320 320 320 320 320 319 317 318 318 318 317 318 318 317 317 316 314 313 311 310 309 308 308 307 308 308 308 308 309 310 311 312 311 311 311 312 312 313 314 315 316 316 316 316 317 317 316 317 317 316 317 315 311 309 309 312 312 310 311 313 312 311 312 312 311 313 315 315 316 316 315
310 311 311 310 309 308 310 312 314 315 317 316 315 315 317 319 320 320 320 320 320 320 319 319 319 319 319 319 318 317 317 318 314 311 311 310 309 308 308 308 307 308 309 309 309 308 309 310 310 309 309 311 312 312 313 314 314 316 316 315 316 316 316 315 315 316 316 316 315 314 309 308 311 310 309 312 314 314 313 314 314 313 314 316 316 316 316 315
309 309 309 310 309 308 309 311 313 314 315 315 316 316 318 320 320 321 321 321 321 321 320 319 319 319 319 319 318 316 317 316 312 312 312 310 309 308 308 308 308 309 310 310 310 309 308 309 309 308 309 311 312 312 314 314 314 315 315 316 316 315 316 316 316 316 315 314 314 313 309 309 311 309 309 311 313 315 316 316 315 316 316 316 316 316 315 314
313 310 309 309 309 307 307 310 312 314 315 316 316 317 318 320 321 321 321 321 321 321 320 319 319 319 318 317 317 316 317 317 313 315 315 310 309 308 308 309 309 310 310 310 310 309 308 307 307 308 310 311 312 312 313 314 313 314 314 315 315 313 315 316 316 315 315 313 312 310 309 311 311 310 309 310 313 316 317 316 315 316 316 316 315 314 314 314
316 313 310 309 308 307 307 308 310 313 315 316 317 317 319 320 321 321 321 320 320 321 321 319 319 318 318 316 316 315 317 318 316 316 314 310 310 310 310 310 310 310 309 309 309 308 307 306 307 309 310 311 312 312 313 313 312 313 314 313 313 313 314 316 314 314 313 311 310 310 310 310 310 311 311 310 312 315 315 315 314 315 314 314 314 313 313 313
318 317 313 310 308 307 307 307 308 311 314 316 316 317 319 320 320 321 320 320 320 321 320 319 319 318 317 315 315 315 317 318 315 313 312 310 311 310 311 311 309 309 308 307 307 307 306 307 309 310 311 311 312 312 312 311 311 312 313 313 312 311 313 315 313 313 312 310 310 310 309 309 310 311 310 309 311 313 314 313 313 313 313 313 312 312 312 312
318 318 316 312 309 307 307 307 307 309 312 315 317 317 318 319 320 320 319 319 320 321 319 319 319 317 316 315 314 316 318 317 314 312 311 311 311 311 311 311 309 308 306 306 306 305 306 308 309 310 311 311 311 312 310 310 310 311 313 313 311 309 311 313 311 311 310 309 310 308 308 310 311 310 308 309 311 312 313 313 312 312 312 312 312 312 312 312
318 318 317 313 309 308 307 307 307 307 309 314 317 316 317 317 318 318 318 319 319 320 320 318 319 317 315 313 313 316 319 317 314 312 312 312 312 312 311 311 309 307 307 306 306 306 307 309 310 310 311 311 311 311 309 310 311 312 313 312 310 309 311 311 310 310 309 308 308 307 308 310 309 308 309 311 312 312 312 312 312 312 311 311 311 311 311 311
318 318 317 315 311 310 308 307 307 307 308 313 316 316 317 317 317 317 318 319 318 319 320 319 320 317 313 310 311 317 319 317 315 313 312 312 311 311 311 311 309 307 307 306 306 306 307 309 310 310 311 311 311 310 309 310 311 310 311 309 309 310 309 308 308 308 307 306 307 307 309 310 308 308 311 313 312 311 311 311 311 311 310 311 310 311 310 311
318 318 318 316 314 313 311 310 310 309 309 312 314 316 317 317 317 317 318 319 317 317 318 319 320 318 314 309 309 315 317 316 315 314 313 312 311 311 311 310 307 307 307 306 307 306 306 308 310 310 310 311 310 308 308 309 309 307 307 308 308 308 307 306 306 306 305 306 306 306 307 309 308 307 310 312 311 310 310 310 310 310 310 310 310 310 310 310
317 318 318 317 316 315 314 314 313 311 311 312 313 314 316 316 317 318 318 319 317 315 314 318 321 319 314 308 308 313 315 315 315 315 314 311 311 312 310 309 307 308 307 306 307 306 307 309 310 310 311 311 309 308 308 308 307 305 306 308 309 308 308 306 305 304 304 306 306 304 306 310 309 308 310 311 310 309 309 309 309 309 309 310 310 310 310 311
314 317 318 318 317 316 316 316 315 314 313 313 313 314 315 316 317 318 318 318 317 314 313 316 319 317 311 308 309 310 313 315 315 315 314 311 311 311 309 309 308 308 307 307 307 306 307 309 310 310 310 310 308 307 307 306 305 306 305 307 309 309 309 305 303 303 303 306 305 305 308 312 312 310 311 311 309 308 308 308 309 309 310 310 311 311 311 312
312 316 318 318 318 318 317 317 317 316 315 314 314 315 316 317 317 317 316 315 312 309 312 316 317 314 309 308 309 308 310 314 314 314 313 311 311 310 309 309 308 307 306 307 307 307 308 309 310 309 309 308 308 307 307 305 305 307 306 306 308 309 309 305 303 304 305 306 304 305 308 311 312 312 311 309 309 308 307 308 309 309 310 310 311 311 312 312
311 314 317 318 318 318 318 318 318 318 317 316 316 316 317 318 317 314 312 311 306 305 311 315 313 310 308 308 308 308 311 313 314 313 312 311 310 308 308 308 307 306 306 307 308 309 309 309 309 309 308 307 307 308 309 308 306 307 308 309 309 308 309 307 303 303 306 306 304 306 309 311 312 312 311 309 309 308 307 309 309 309 310 310 311 311 311 312
309 312 314 316 317 318 318 318 318 318 317 317 317 317 318 318 314 310 309 308 305 304 308 311 310 308 309 310 309 310 312 313 312 312 311 311 309 308 308 306 306 306 306 307 309 310 309 308 308 307 307 307 308 310 310 310 308 307 308 311 310 308 309 308 304 303 305 306 306 306 308 310 311 311 311 310 309 308 308 309 309 309 310 310 311 311 311 312
306 309 311 313 315 316 317 317 317 317 317 317 317 318 318 315 310 306 306 306 304 304 306 310 311 310 310 311 310 310 312 312 312 312 311 309 308 309 307 306 307 308 307 309 310 310 308 307 307 307 307 307 309 310 310 310 311 310 308 309 309 307 307 308 307 305 304 306 307 307 307 308 310 310 311 310 310 310 309 310 310 310 310 310 311 311 311 311
304 307 308 309 311 313 315 316 316 316 316 316 317 317 315 311 306 304 304 304 305 306 308 310 311 311 312 311 311 311 312 312 312 312 311 309 308 309 307 306 308 309 309 310 309 308 308 307 308 309 308 307 308 309 310 311 311 310 309 309 309 307 306 308 308 306 304 306 307 308 307 308 309 310 311 311 310 310 310 310 310 310 310 311 310 310 311 311
302 304 306 306 307 308 309 311 312 313 314 315 316 314 309 306 304 304 304 304 307 309 310 311 310 311 313 311 310 311 312 312 312 311 311 309 309 308 307 307 308 308 308 309 309 308 308 309 309 309 310 309 309 309 310 310 310 310 310 309 309 309 307 308 308 305 304 306 308 308 309 309 310 311 312 312 311 311 311 311 311 312 312 311 311 311 311 312
302 303 303 304 304 304 305 306 308 311 313 314 314 310 306 305 306 308 307 306 308 309 309 310 309 309 310 310 311 312 312 312 312 312 311 309 308 308 307 307 308 308 308 310 310 307 307 309 310 311 311 310 310 310 310 309 308 309 309 309 309 309 308 308 307 304 304 307 309 309 309 310 310 311 312 313 312 312 313 313 313 313 313 313 312 311 311 312
302 302 302 303 303 303 304 306 307 310 312 312 309 307 306 306 306 309 309 308 307 308 308 308 308 309 309 310 311 311 311 312 312 312 311 310 308 308 307 307 307 307 308 309 309 307 307 308 312 312 311 309 309 309 309 308 308 308 308 309 309 309 309 308 307 305 304 307 310 309 309 310 311 312 313 314 313 313 313 314 314 314 313 313 312 312 311 312
302 302 302 303 303 303 304 306 307 308 308 307 304 304 305 305 305 307 307 308 308 308 308 308 309 309 309 309 310 310 311 311 311 311 311 310 309 309 307 308 309 308 308 307 308 309 308 309 312 308 305 307 307 306 307 308 308 308 308 308 309 309 309 308 306 305 305 307 310 310 309 311 312 313 314 314 313 313 314 313 313 312 312 312 312 311 311 312
302 302 302 303 303 303 303 304 305 304 304 303 304 304 304 305 306 307 307 309 309 308 308 308 309 309 310 310 310 310 311 312 312 311 310 310 309 308 308 309 311 311 309 308 309 309 309 311 309 302 303 308 309 306 306 307 307 308 309 308 309 309 308 308 307 305 306 307 308 309 309 312 313 314 314 314 313 312 312 310 310 310 310 311 311 311 312 313
302 302 302 303 304 304 303 303 303 303 304 304 305 305 305 305 306 307 308 309 309 308 308 309 309 310 311 311 311 311 311 311 311 311 311 311 309 309 309 310 310 310 310 310 310 309 310 310 303 302 305 309 310 308 307 308 308 310 310 309 309 309 308 309 308 306 308 307 306 309 311 313 315 315 314 314 313 311 311 310 310 310 310 310 311 312 312 313
302 302 302 303 304 304 304 304 305 305 305 305 305 305 305 304 305 307 308 308 309 308 308 310 310 310 311 311 311 311 310 311 310 311 312 310 309 309 309 307 307 310 312 311 309 309 310 306 301 306 307 308 310 310 310 310 309 310 311 310 310 309 308 308 309 309 312 311 308 309 311 312 315 315 314 315 313 313 313 312 312 313 311 311 312 313 313 313
302 302 302 304 305 305 305 306 305 305 305 305 305 304 304 304 306 308 308 308 309 309 310 310 310 310 310 311 311 310 311 312 310 311 311 310 309 308 309 308 307 310 313 310 308 309 308 302 302 308 309 309 310 310 310 311 309 310 310 308 308 308 308 309 310 311 312 312 309 308 311 312 313 314 315 315 313 313 315 314 314 313 311 311 312 313 313 313
302 302 303 304 305 306 306 306 306 306 306 305 304 304 304 304 307 308 307 308 308 309 311 310 309 309 309 310 310 310 312 312 310 310 311 310 309 308 310 311 308 309 308 307 308 309 307 305 305 307 309 310 310 310 310 309 309 311 308 305 306 308 309 310 311 311 311 311 309 308 310 311 312 314 315 314 313 314 315 315 315 314 312 312 313 313 313 313
302 302 303 304 305 306 305 305 307 307 307 307 305 303 304 305 307 308 308 308 307 309 311 310 309 309 309 309 309 308 310 310 311 311 310 311 310 309 310 312 312 312 307 307 309 310 307 310 308 308 309 309 310 309 307 308 310 309 305 305 307 307 310 310 310 312 310 309 312 310 308 311 312 314 315 313 313 315 315 315 315 315 315 313 313 313 313 312
302 302 303 303 304 305 305 304 307 307 307 308 306 304 304 305 307 308 308 308 308 309 311 310 310 310 309 310 309 308 309 310 311 311 309 311 311 310 311 311 311 313 308 307 309 309 307 308 307 308 310 310 309 305 302 307 309 307 303 305 306 307 308 309 310 312 310 309 312 310 307 310 312 314 315 313 313 315 315 314 315 315 315 314 313 313 312 312
301 302 302 302 304 304 304 304 305 307 308 308 307 306 305 306 307 308 308 309 309 309 308 309 310 309 309 311 310 309 309 310 309 309 310 310 310 309 309 309 309 311 310 308 309 308 305 304 304 307 309 308 305 302 301 304 306 305 306 308 309 308 307 308 308 310 311 312 312 309 306 309 311 313 316 314 314 316 315 314 315 315 315 314 313 312 312 312
301 302 302 302 303 304 304 303 305 308 309 308 308 307 306 308 308 308 309 308 308 308 308 309 309 309 310 311 311 309 310 310 309 310 311 310 310 310 309 309 309 310 311 311 310 308 305 306 307 305 304 304 305 305 302 302 304 306 308 310 310 309 308 309 309 309 312 312 310 307 305 307 310 312 315 314 313 313 312 313 314 314 315 314 313 312 312 311
301 301 301 302 303 304 305 304 305 309 309 308 308 307 308 309 308 310 310 308 308 309 310 309 310 311 311 310 311 310 310 310 309 310 311 311 311 311 311 311 311 311 311 311 311 310 309 309 307 305 303 303 308 310 307 305 306 307 309 309 310 310 309 310 310 310 311 311 307 305 306 308 310 312 313 313 313 312 311 312 313 313 313 313 312 312 311 311
301 301 301 302 302 303 304 304 305 309 310 308 307 307 308 309 311 312 311 310 308 308 309 310 309 309 310 310 311 309 309 310 310 309 310 310 310 312 314 312 310 311 311 309 310 311 311 310 306 307 306 304 307 310 310 309 309 309 310 310 310 310 309 310 310 309 310 310 307 304 306 310 312 313 313 313 313 313 312 312 312 312 311 312 311 311 310 311
300 301 301 301 302 303 304 304 306 309 309 307 308 308 307 309 311 309 309 310 307 305 308 309 308 308 309 310 310 308 310 311 309 309 309 309 310 311 313 311 309 310 309 309 310 310 311 312 309 308 308 304 305 308 308 309 310 309 309 308 309 310 309 310 311 310 310 311 308 305 308 312 313 313 313 312 312 312 311 311 310 310 310 311 310 310 310 311
300 300 301 301 302 302 303 304 307 309 308 307 308 308 307 309 310 309 311 312 308 307 308 306 308 311 309 309 308 307 309 310 308 309 310 310 311 311 312 313 310 310 309 310 310 309 309 311 308 304 304 303 305 305 303 307 310 308 306 308 310 309 309 309 309 309 310 310 310 308 310 313 313 313 314 312 311 311 310 309 308 309 310 310 310 310 311 311
300 300 301 301 301 302 302 304 308 309 308 308 308 308 309 311 310 308 311 313 310 311 309 307 309 311 309 308 308 307 307 308 308 310 310 309 311 311 312 313 311 310 311 311 311 309 309 310 305 302 303 301 303 304 301 306 310 308 308 310 308 306 307 309 307 305 306 310 312 310 311 313 312 313 314 313 312 310 308 308 308 308 309 309 310 311 311 312
300 300 301 301 301 301 302 304 308 309 308 307 309 310 310 311 310 309 310 309 309 310 309 309 309 310 311 310 308 308 308 307 307 309 310 309 311 311 311 312 310 310 312 310 310 311 310 311 306 304 306 302 300 302 302 303 305 308 310 309 306 305 307 309 310 308 308 312 313 310 310 311 311 313 315 314 313 312 310 310 310 310 309 309 311 312 312 313
300 300 300 301 301 301 302 304 308 308 307 307 309 310 310 309 305 306 307 306 308 310 309 309 309 308 312 311 309 308 308 309 308 308 310 309 311 312 311 312 310 307 308 307 308 309 308 311 308 302 305 303 300 303 307 304 302 306 308 304 305 309 310 309 310 311 311 311 312 310 310 310 310 312 314 313 314 313 312 312 312 312 312 311 312 313 313 313
299 300 300 301 302 302 302 304 306 307 307 307 309 309 309 309 304 301 304 306 308 310 309 310 308 306 309 311 310 309 308 309 308 308 309 309 310 311 310 312 310 305 304 306 308 309 307 309 310 303 302 304 303 306 310 309 304 304 306 304 304 307 310 309 309 309 311 311 310 311 313 313 312 312 312 313 313 313 312 313 313 313 312 311 312 312 313 313
299 300 301 302 302 302 302 304 306 307 308 307 308 308 305 307 305 301 303 306 308 308 310 312 309 307 309 309 308 309 308 307 307 308 308 307 309 311 309 309 310 306 304 305 308 309 306 308 310 306 302 304 307 308 309 311 309 306 308 307 306 306 306 308 307 306 309 310 309 310 314 315 313 312 312 313 313 313 313 313 314 315 312 311 312 312 312 312
300 301 302 303 303 302 302 306 306 306 307 306 306 307 305 305 306 303 302 305 306 307 309 312 310 308 309 308 307 308 308 307 306 307 308 307 308 311 309 308 309 307 306 306 308 308 307 307 309 308 306 308 309 305 303 306 308 308 309 310 310 309 307 310 310 305 305 308 309 309 312 314 314 313 312 312 312 312 313 312 312 313 311 310 311 311 311 311
301 302 303 303 304 303 303 307 305 302 306 307 305 307 306 305 306 305 303 303 305 306 306 309 310 308 308 308 308 308 309 308 307 307 308 309 310 310 307 305 306 307 308 309 309 308 307 307 308 309 309 307 304 299 297 299 301 305 307 307 309 310 309 312 313 308 305 305 306 306 310 314 314 313 312 311 311 310 310 310 311 311 310 309 309 309 309 309
302 302 304 304 304 304 305 306 304 302 305 305 302 304 305 304 305 305 304 304 306 307 307 307 308 308 309 308 307 307 309 309 308 309 308 307 309 307 303 303 306 307 309 310 309 307 307 308 309 310 309 304 300 298 298 297 299 305 306 304 306 309 309 309 309 308 308 307 306 307 310 314 315 315 313 311 309 307 307 307 308 309 309 308 309 308 308 308
302 302 304 305 304 304 305 306 305 306 306 304 302 303 304 303 304 306 307 306 306 307 309 309 308 308 308 306 306 309 309 308 310 310 307 307 307 303 300 302 305 307 309 309 309 309 309 309 310 310 310 308 304 304 304 301 301 306 307 304 305 307 306 306 305 306 309 310 309 310 311 314 315 315 313 311 309 309 309 309 308 309 309 309 308 307 307 307
302 302 303 304 304 304 304 305 304 305 306 305 304 304 303 302 303 305 306 307 305 306 309 309 306 306 306 304 304 307 307 307 308 308 306 306 305 301 299 301 303 305 307 305 305 308 310 309 309 311 311 310 309 309 309 308 305 305 305 303 305 306 306 307 308 308 309 310 310 310 312 313 314 314 312 312 312 310 311 311 310 309 308 308 307 307 306 306
301 302 302 303 303 303 304 303 302 302 304 304 304 303 304 305 303 302 303 306 305 304 305 305 304 305 304 304 305 308 308 305 305 306 305 305 305 303 300 300 301 302 303 302 302 305 308 308 309 311 312 311 312 311 308 308 307 307 306 304 304 306 306 308 309 310 310 309 308 310 312 313 313 312 312 311 311 311 310 311 310 310 308 308 307 306 306 306
300 302 303 302 303 303 303 303 301 301 302 303 304 303 304 305 304 302 302 304 304 303 304 304 304 306 306 305 306 309 309 305 303 304 305 303 304 303 299 299 300 300 301 302 302 304 308 309 308 310 312 312 313 310 306 307 308 308 309 307 305 305 306 308 309 310 309 309 309 311 312 312 311 311 311 311 311 311 310 310 310 310 308 308 307 307 307 307
299 300 302 303 304 304 304 304 303 302 302 302 303 304 304 304 304 304 303 301 300 302 306 306 305 308 309 307 307 309 309 306 305 306 306 304 303 303 301 300 299 299 302 303 302 303 307 309 307 307 309 310 310 307 305 306 306 306 308 309 307 304 305 308 310 309 309 309 311 312 312 311 310 310 310 310 310 310 310 310 309 309 308 308 307 307 307 307
299 300 300 301 303 304 304 305 304 303 303 302 302 303 304 304 305 304 303 302 301 302 305 308 308 308 308 309 308 308 309 308 308 308 307 306 304 303 304 303 300 299 301 303 302 302 306 310 309 307 307 308 307 306 305 305 305 305 305 307 307 306 305 307 309 309 309 310 311 312 312 311 310 310 310 310 310 310 310 309 309 309 308 308 307 307 307 306
299 300 300 299 299 299 301 303 304 304 304 302 302 303 303 304 305 304 302 304 306 303 301 306 309 307 307 308 308 308 309 309 310 311 306 305 305 304 304 306 305 300 300 303 303 301 304 309 309 306 307 308 306 304 303 303 304 305 305 305 306 306 305 306 307 309 309 309 310 311 311 310 310 310 310 310 310 310 309 309 309 309 308 307 307 306 305 305
300 300 299 299 300 299 300 301 303 304 304 303 303 303 303 303 304 304 303 304 306 305 303 306 308 306 305 307 307 309 309 309 310 310 306 305 306 306 305 306 308 305 302 302 303 303 303 305 304 304 306 308 305 301 300 301 301 302 303 304 304 305 305 306 306 307 308 309 309 309 309 309 309 309 310 310 310 309 308 309 309 308 307 306 305 305 305 305
299 300 299 299 301 301 300 301 302 303 304 304 303 304 304 304 304 304 304 303 303 305 304 305 307 306 304 305 307 308 308 307 307 306 304 304 304 303 303 303 306 308 305 302 302 302 302 304 304 303 306 307 302 299 299 299 300 301 303 305 305 305 305 305 306 306 307 308 309 308 308 309 309 310 310 309 309 308 308 308 307 307 306 305 304 304 304 305
Wind_Speed
9 8 6 5 5 5 4 3 3 2 2 2 4 6 8 9 9 8 8 7 8 7 5 4 5 7 9 6 5 9 13 15 13 10 10 10 13 15 15 14 15 15 11 10 10 10 9 9 10 10 8 7 8 8 10 10 10 10 4 4 7 6 6 5 6 5 2 5 1 1 4 6 6 3 6 7 10 14 15 18 20 20 22 24 24 24 24 25
9 8 7 7 6 7 6 4 5 6 4 4 4 5 7 8 7 7 7 6 6 7 6 6 6 6 8 4 6 12 12 14 14 8 7 10 14 15 15 14 14 14 11 9 9 12 11 8 8 9 8 7 6 7 9 10 11 8 1 4 7 6 4 3 5 5 5 7 4 1 4 6 9 6 4 7 11 13 13 16 19 21 25 28 28 27 26 26
9 9 9 8 8 8 8 6 7 9 8 6 4 5 6 7 7 6 6 5 6 7 8 8 8 8 9 8 10 14 14 15 10 6 6 8 12 14 13 12 12 12 10 8 8 11 11 10 9 9 9 8 7 8 9 8 9 6 3 5 6 3 3 4 7 9 10 11 8 5 5 7 13 10 5 8 14 14 13 15 15 17 24 29 28 25 23 23
10 10 10 10 10 10 9 8 8 10 9 7 5 6 6 7 6 6 6 6 8 8 8 10 9 9 10 12 12 13 15 10 3 5 9 7 5 9 10 9 9 8 7 8 9 9 10 11 11 9 10 9 7 8 8 9 8 4 5 6 2 2 5 8 10 12 12 12 10 7 5 8 13 12 10 10 12 14 15 18 18 19 24 25 23 21 20 21
10 11 11 11 12 11 10 9 9 10 9 8 7 7 7 7 6 7 8 9 10 9 8 10 11 10 11 13 13 13 13 3 3 7 10 6 3 3 5 6 6 5 7 9 10 11 11 12 11 10 11 8 6 7 6 11 9 3 5 6 2 4 5 6 7 11 11 11 10 7 7 10 11 12 16 15 13 14 14 15 18 22 25 24 22 24 26 27
11 11 12 12 13 12 11 10 10 11 10 9 9 8 8 8 7 8 10 11 11 9 8 9 11 10 10 12 13 13 9 2 3 10 8 3 2 2 3 5 6 7 10 12 12 13 13 13 12 11 10 8 8 7 5 12 11 5 4 4 6 8 7 6 6 8 9 8 8 8 9 10 11 14 16 18 21 26 24 21 24 27 27 29 29 31 33 33
11 11 12 13 14 13 12 11 11 12 12 10 9 9 8 7 7 9 11 13 12 10 8 9 10 9 9 12 14 14 10 6 9 10 6 3 1 3 6 7 8 9 10 11 12 14 14 15 14 12 10 6 8 9 5 9 11 7 4 4 7 9 10 11 10 10 11 10 12 12 11 11 14 14 10 17 29 35 36 32 34 37 35 36 37 38 39 39
12 12 12 13 14 13 13 13 12 13 13 11 10 11 10 9 9 11 12 12 11 10 11 11 10 10 9 11 14 16 13 8 10 10 7 5 5 6 8 11 10 9 9 9 11 13 15 16 16 13 9 6 6 8 6 6 7 8 8 4 5 7 11 15 14 15 16 16 18 14 13 17 19 13 12 27 39 41 42 40 39 39 37 37 37 36 35 34
13 12 12 13 13 13 13 13 13 13 13 12 12 12 12 11 12 13 13 12 10 10 12 14 13 12 10 11 14 14 9 8 10 13 10 8 8 9 11 14 12 9 8 8 10 13 16 18 18 15 8 6 7 7 9 7 4 9 9 4 3 6 9 12 13 15 16 17 15 11 15 19 15 11 17 35 40 35 32 29 27 27 27 26 24 23 21 21
14 13 13 13 13 13 13 13 13 13 13 13 13 13 12 12 13 13 12 11 11 10 11 14 15 13 10 10 11 7 6 9 11 13 13 12 13 12 13 14 12 9 8 9 11 14 18 17 18 18 8 4 7 5 9 7 2 6 6 3 7 9 9 10 11 14 13 13 12 11 15 15 5 3 14 25 22 16 14 15 17 18 19 20 19 19 20 22
14 14 14 14 14 14 13 13 13 12 13 14 14 13 13 13 12 12 12 11 12 13 11 13 15 14 12 10 8 4 9 13 13 14 14 15 15 13 12 12 11 9 8 11 12 13 17 15 14 16 8 4 7 5 7 7 2 2 2 4 8 9 10 12 12 12 8 9 11 10 14 14 3 3 21 31 21 15 18 19 20 21 24 26 27 28 28 29
15 15 15 14 14 14 13 12 12 12 13 13 13 13 13 14 13 12 13 12 12 13 13 13 13 13 11 11 10 9 12 15 14 13 14 13 13 12 12 12 10 9 9 11 12 12 15 15 13 14 8 5 6 3 5 6 2 1 0 5 7 6 8 8 6 6 5 6 6 4 10 13 8 13 32 36 22 20 24 25 24 24 26 25 26 26 26 25
16 16 16 15 14 14 13 13 12 12 13 12 11 12 13 13 13 13 12 11 12 13 14 13 12 12 10 10 11 9 11 14 11 11 12 12 12 13 13 11 10 9 10 11 10 11 15 15 13 15 10 6 4 2 2 3 1 1 1 3 6 6 5 2 2 2 4 5 4 4 7 7 9 18 28 23 16 18 21 22 23 21 21 22 24 26 25 23
17 17 17 16 15 14 14 13 12 13 13 12 11 11 13 13 13 13 12 10 10 12 12 11 11 11 9 10 10 9 10 12 10 9 9 10 11 13 12 10 9 8 9 10 10 10 15 15 13 14 9 5 4 3 3 2 1 0 1 1 3 4 2 4 2 3 4 2 4 5 6 7 6 9 13 12 13 14 15 18 19 20 26 30 31 31 29 27
17 17 17 17 16 16 15 14 13 14 14 12 11 11 12 13 13 12 11 9 9 10 10 8 9 9 9 13 12 7 8 10 10 9 7 9 10 11 10 8 7 6 9 11 10 10 12 13 12 9 5 5 4 3 1 0 1 1 2 3 2 3 2 2 2 2 2 0 4 5 6 8 10 8 6 8 11 11 14 19 20 26 34 36 34 32 31 29
16 16 16 17 17 17 16 15 14 15 14 13 12 12 13 13 12 12 10 9 9 9 8 7 8 7 6 9 7 5 6 8 9 8 7 7 7 8 7 5 4 6 10 11 10 10 11 12 9 5 4 4 3 2 2 3 2 1 3 5 2 4 3 1 2 1 2 1 3 6 6 8 9 8 9 10 15 19 21 24 24 27 34 37 36 34 34 33
15 15 15 16 18 18 17 16 15 15 15 14 13 13 13 12 11 11 10 8 8 7 7 5 5 6 7 6 6 6 7 7 7 7 6 6 5 5 4 2 4 7 10 11 10 10 11 9 6 3 3 1 1 2 3 4 5 3 3 5 3 3 3 3 1 2 1 2 4 5 8 15 16 14 17 19 21 23 25 27 26 25 29 33 32 34 36 36
14 14 14 16 17 18 18 17 16 15 15 14 14 13 12 12 10 9 9 8 7 5 6 5 2 2 6 8 7 7 7 6 6 6 6 5 4 4 3 3 6 9 11 10 8 8 7 5 3 2 2 2 2 5 6 4 2 2 3 4 2 2 3 5 3 1 1 3 5 7 10 19 22 18 19 21 20 21 25 26 26 26 27 27 27 32 37 37
15 14 14 15 15 16 17 16 15 15 15 14 13 12 11 10 8 8 9 9 9 5 3 7 8 2 1 4 4 4 5 5 5 5 5 5 4 3 3 6 9 11 9 7 5 5 4 3 2 4 5 6 7 9 8 2 2 1 1 2 4 4 4 7 4 1 1 5 8 10 12 17 22 19 15 17 19 21 26 25 24 24 22 21 24 30 34 32
15 15 14 14 14 15 15 15 14 14 14 13 13 11 8 6 4 4 9 13 14 11 9 10 11 9 6 4 3 2 2 5 6 5 4 3 4 3 5 9 10 8 5 3 3 3 2 3 5 5 4 5 6 6 4 2 2 1 1 3 5 5 6 7 3 1 1 5 7 7 11 17 21 21 16 15 17 19 22 21 20 19 15 16 20 24 25 23
15 15 15 14 13 13 13 14 14 13 13 13 13 11 8 6 4 2 7 11 13 14 16 16 15 15 14 9 7 5 5 6 7 7 6 4 6 5 6 8 6 4 2 2 2 2 2 6 7 2 1 1 1 1 2 2 1 2 3 5 5 5 7 4 1 0 1 3 4 1 9 17 20 22 18 13 13 14 15 15 16 15 13 14 16 19 19 17
14 15 15 14 13 12 12 12 12 12 12 13 13 13 11 10 8 7 6 8 10 12 16 18 18 18 18 16 14 12 8 6 7 8 7 6 8 7 5 5 2 1 2 2 2 2 4 7 3 2 2 3 3 1 3 4 3 3 3 4 4 3 4 2 1 1 2 2 3 2 7 17 20 21 18 13 10 12 12 12 15 16 14 14 16 18 17 13
13 14 14 13 12 11 11 11 11 11 12 13 13 14 13 11 10 8 6 5 8 10 12 15 17 18 18 17 15 12 8 6 6 7 7 7 9 7 6 5 1 2 3 4 5 4 4 3 1 2 2 3 3 2 3 2 3 4 3 4 4 0 2 3 1 1 3 3 5 6 8 13 16 16 14 9 7 8 11 12 18 20 19 17 16 16 12 7
11 12 13 12 11 10 10 10 10 10 11 12 12 12 12 11 9 7 5 4 5 5 6 8 9 10 11 11 10 8 8 7 5 5 7 8 9 6 5 4 2 3 4 5 5 5 2 1 2 3 2 2 3 3 5 4 3 5 5 6 5 1 3 4 2 3 5 2 3 8 7 8 8 10 12 6 5 5 8 11 16 18 18 17 14 11 6 3
10 10 11 11 11 10 9 9 10 9 10 11 10 10 11 10 7 4 3 3 4 2 3 4 4 4 6 6 7 6 5 6 7 6 6 8 10 6 3 3 3 3 4 4 3 5 2 2 3 4 2 2 3 3 5 5 4 3 5 7 5 1 2 4 3 4 5 2 2 5 6 4 5 11 15 7 3 6 5 6 12 12 13 13 10 5 1 3
9 9 9 10 10 10 9 7 7 7 8 9 8 9 10 9 7 4 0 1 2 1 1 3 3 3 5 5 6 6 3 3 6 7 6 7 10 7 3 3 0 1 3 4 2 2 0 2 2 2 3 3 3 3 4 5 4 3 1 2 1 2 1 3 4 4 4 2 1 1 4 4 7 13 12 5 7 11 7 4 7 7 7 10 9 5 3 7
9 8 8 9 9 10 8 6 6 5 5 6 6 7 9 10 7 3 1 1 2 0 1 3 2 3 5 5 8 7 2 2 4 4 6 7 8 7 3 3 1 1 3 2 2 1 3 3 2 2 3 3 3 3 3 6 4 1 1 1 3 4 3 3 3 3 2 4 1 1 2 3 6 9 4 3 8 9 5 3 4 3 3 6 9 5 4 11
10 8 8 9 10 10 9 7 6 5 4 4 5 6 9 11 7 2 1 2 0 1 1 2 3 3 3 5 8 5 1 3 3 2 5 6 7 5 4 4 3 2 3 3 3 0 1 3 5 4 3 3 3 1 1 6 4 1 2 1 2 2 2 2 3 3 1 3 3 3 0 3 5 8 3 3 6 5 1 4 4 5 3 2 6 7 12 16
11 10 9 9 10 10 10 8 5 5 5 5 6 8 11 11 6 2 1 2 1 1 1 2 3 2 2 3 5 2 1 2 1 2 5 5 5 3 2 3 3 4 2 3 3 1 0 2 3 4 3 2 2 3 2 3 2 2 4 2 2 2 1 1 2 2 1 3 4 3 1 3 4 8 5 0 3 3 1 1 1 2 5 7 10 15 18 16
12 11 10 10 10 11 11 9 7 6 6 7 9 11 12 9 4 1 1 1 1 1 1 2 2 0 1 3 1 0 1 0 2 4 4 3 4 2 2 4 3 3 2 1 2 1 1 0 1 2 1 2 4 4 2 1 2 3 4 2 2 2 1 1 0 1 2 3 1 3 0 3 4 6 4 2 2 1 1 2 2 3 7 12 18 21 20 17
12 11 11 10 11 12 11 10 9 8 8 9 12 14 11 5 1 1 2 1 1 1 1 2 1 0 2 2 1 0 1 0 1 2 3 3 3 3 3 3 2 2 2 3 3 2 2 2 1 1 2 3 4 3 3 1 1 2 2 2 2 2 2 2 2 1 3 3 2 2 1 2 5 4 2 1 2 2 3 3 6 7 8 15 22 22 19 18
13 12 12 11 12 13 11 10 10 11 10 11 15 14 7 1 1 3 2 1 1 1 1 1 0 1 2 0 1 1 1 0 0 1 2 2 2 4 3 3 3 3 3 3 3 2 3 3 2 2 3 3 3 3 3 2 2 2 2 2 3 2 2 3 2 2 3 1 3 1 1 2 8 9 8 10 9 6 6 6 9 9 9 16 23 22 18 16
13 13 12 12 12 12 12 10 12 14 12 13 15 9 2 1 3 2 2 1 1 0 1 2 2 1 2 1 1 1 1 1 1 0 1 0 2 4 2 1 2 2 1 1 2 2 2 2 3 3 3 3 4 3 2 2 4 4 3 3 3 2 2 3 2 1 3 0 2 1 1 3 7 7 9 13 10 6 5 7 9 10 12 19 22 19 14 11
13 13 13 13 12 13 13 13 15 16 14 15 12 4 2 3 3 1 2 2 1 1 1 2 2 2 1 1 0 1 2 1 1 1 2 2 2 4 3 3 4 2 0 1 2 2 3 1 3 3 2 2 3 2 1 1 4 3 1 0 2 2 2 3 2 2 2 2 1 2 1 4 4 1 2 8 8 8 10 11 13 14 15 16 15 12 9 8
13 13 14 13 12 13 14 15 17 17 17 17 8 1 3 3 2 1 2 2 1 1 1 1 2 2 1 1 1 1 2 0 2 1 2 3 3 3 2 4 6 4 3 3 2 1 3 3 2 2 1 1 2 1 1 0 3 2 1 0 2 1 1 1 1 1 2 3 2 3 3 5 4 6 8 8 7 8 9 9 10 11 10 9 10 8 6 8
14 14 14 13 13 14 15 16 18 19 21 16 5 4 5 3 2 3 2 3 3 4 4 1 2 2 2 2 1 0 1 0 0 1 3 3 3 3 2 2 6 8 6 3 2 2 2 1 2 1 1 2 1 1 1 2 1 2 3 2 0 1 1 1 1 1 0 4 2 2 5 5 3 6 6 4 3 2 1 1 2 5 7 8 8 5 6 7
14 13 13 14 14 15 17 18 19 22 22 13 4 5 3 2 4 4 2 3 2 4 5 2 2 3 2 2 2 3 2 1 2 1 2 2 3 4 3 2 5 9 6 1 1 1 1 1 2 1 1 3 2 1 1 2 1 1 2 1 1 0 1 0 2 1 1 4 2 1 5 5 2 2 3 3 3 2 2 1 2 5 7 8 6 5 7 7
15 12 12 14 14 15 19 20 20 23 19 7 5 6 3 3 3 3 4 3 1 2 3 3 3 1 2 3 2 4 3 3 4 2 2 2 2 4 5 2 4 5 3 1 1 1 1 2 1 2 1 2 1 2 2 1 1 1 0 1 0 1 1 1 2 2 2 3 3 2 5 5 4 4 4 5 4 3 3 2 3 5 5 6 5 5 6 8
13 10 9 13 15 16 21 22 21 21 13 4 6 5 2 3 3 4 7 4 0 2 3 4 2 1 2 3 2 3 4 3 4 3 3 2 2 4 4 2 2 1 1 3 2 0 1 3 1 1 2 2 1 4 4 4 2 0 1 1 0 2 1 1 1 1 2 3 3 3 3 4 6 6 5 8 6 5 5 4 4 5 6 7 7 6 8 12
12 7 6 12 16 17 22 22 19 16 8 3 5 3 0 3 4 6 10 6 2 2 2 2 2 2 3 2 1 2 3 3 4 3 2 2 2 4 5 3 3 2 1 2 1 1 2 2 2 2 1 2 3 3 4 5 6 4 4 4 3 1 1 2 1 0 1 2 2 2 4 6 4 4 8 13 11 7 6 5 5 6 8 10 8 6 10 14
13 5 5 12 17 20 25 20 11 8 3 1 2 1 1 2 2 4 9 8 3 1 1 1 1 2 3 2 2 3 4 3 4 3 3 4 4 4 4 5 7 7 4 2 2 3 3 2 2 2 2 4 2 1 2 1 1 3 5 5 6 5 3 3 3 1 1 2 2 1 5 9 3 3 7 12 10 6 5 6 6 7 11 12 10 9 13 17
13 4 5 14 19 26 26 13 3 2 2 3 2 2 3 4 3 4 7 7 3 2 1 1 1 2 3 2 1 3 5 3 4 3 4 6 5 3 3 7 10 11 6 2 2 2 2 1 2 2 3 2 1 3 2 3 3 1 2 2 4 5 5 5 4 2 2 1 0 1 3 9 3 3 4 5 5 4 4 6 6 7 11 13 14 17 18 19
12 6 9 17 23 30 22 5 1 2 2 3 1 2 4 4 3 4 5 6 4 2 2 2 2 3 3 2 2 4 5 4 5 5 4 5 5 3 4 10 12 8 4 1 1 3 3 1 3 3 1 2 1 2 1 2 1 2 3 3 4 4 3 2 1 1 2 4 3 2 4 9 3 2 1 0 0 3 5 9 9 10 17 20 19 20 20 20
10 7 10 17 27 31 17 3 4 6 4 1 0 3 4 3 4 6 6 7 6 4 3 3 3 4 3 1 3 4 5 4 5 5 3 3 3 1 4 11 12 6 3 2 3 7 6 2 3 3 2 2 2 2 2 1 2 4 3 5 6 4 4 2 1 1 3 6 8 5 7 9 2 2 2 2 2 4 9 13 13 15 23 24 19 20 22 23
7 6 7 15 29 29 14 4 3 4 5 5 4 4 4 3 7 10 8 7 7 6 4 2 2 2 1 2 2 2 5 4 3 3 2 2 2 2 1 9 10 5 3 2 4 7 5 2 4 5 5 6 5 2 2 2 4 4 3 7 10 9 10 5 3 3 5 6 10 8 10 11 7 5 9 10 8 11 14 15 13 16 21 23 21 22 23 24
6 5 3 8 20 23 15 9 4 2 5 7 4 3 7 6 5 9 10 7 9 9 3 1 3 3 2 3 2 2 6 4 1 1 2 3 2 1 1 6 8 6 3 2 5 5 1 2 6 7 8 8 5 1 2 3 5 5 5 9 11 12 12 7 3 5 6 5 7 11 12 13 15 15 16 15 12 14 16 15 13 12 14 17 21 24 26 28
5 4 6 7 9 13 12 11 8 3 3 8 5 4 10 10 4 5 8 6 7 9 4 0 4 5 4 7 4 4 5 3 1 1 3 4 1 1 1 2 5 7 4 1 5 5 1 3 8 9 10 10 5 0 4 3 3 5 6 9 11 12 13 11 9 7 6 4 8 14 13 13 17 20 20 18 16 16 15 15 15 15 17 21 23 26 30 34
8 4 10 12 7 5 8 13 14 10 5 6 6 3 7 11 7 7 7 3 3 8 7 3 5 10 10 9 6 4 3 2 3 4 3 4 2 1 2 0 2 5 4 2 4 3 2 4 4 6 11 12 7 1 5 4 2 3 6 8 12 14 15 16 14 9 9 9 13 12 11 13 17 21 21 20 19 18 16 16 18 22 27 30 29 30 34 37
12 6 9 13 7 7 16 19 16 14 10 7 5 4 6 9 10 7 4 3 2 8 9 6 9 13 11 9 8 7 5 5 7 6 5 4 4 3 2 2 2 3 4 4 3 2 3 3 1 2 7 12 8 4 6 8 6 5 8 9 11 15 18 18 16 13 14 15 15 13 13 15 18 19 20 24 23 18 17 22 26 26 27 28 28 30 35 37
16 10 9 10 7 7 14 14 10 10 10 9 8 6 5 8 11 7 3 7 7 5 6 12 14 10 11 10 11 11 13 14 11 6 7 7 3 3 4 3 3 3 4 4 3 2 4 2 2 3 4 9 6 2 5 7 8 9 10 11 12 12 13 14 15 13 13 15 16 14 13 15 19 19 20 27 27 18 17 24 28 26 22 20 23 28 31 35
25 17 10 6 4 7 10 6 6 6 7 8 9 6 5 11 15 10 6 11 14 8 11 18 16 6 8 9 10 14 22 20 12 7 10 11 6 6 6 4 7 7 5 5 3 3 4 3 2 3 4 6 1 2 3 2 3 5 9 14 17 14 12 14 14 12 14 16 14 10 10 13 18 18 15 16 18 15 16 20 22 23 23 20 22 27 31 33
34 27 17 7 4 8 9 3 4 6 5 8 11 11 12 15 15 12 7 10 17 19 20 20 11 6 6 8 14 25 28 18 12 9 10 11 8 7 8 7 9 9 6 6 4 2 5 4 2 2 4 4 1 2 4 2 2 6 9 14 17 15 14 14 10 11 16 15 10 9 13 15 16 15 13 12 13 12 12 14 16 20 23 23 24 28 33 35
Wind_Direction
237 246 256 267 277 283 276 258 236 263 309 263 256 266 281 293 295 289 291 311 311 295 294 283 296 320 310 297 309 311 306 314 319 294 271 264 262 260 259 249 232 226 234 254 242 232 234 222 221 224 227 222 219 215 206 204 183 175 180 220 226 226 215 200 215 217 291 304 319 173 220 240 274 270 259 275 251 244 251 253 253 250 254 263 269 273 276 278
238 243 250 260 269 271 272 256 238 250 263 262 262 280 300 304 296 292 298 306 293 266 256 269 272 292 306 299 332 333 319 323 333 315 283 268 255 251 250 243 234 231 241 253 240 235 235 232 231 231 227 216 217 206 200 196 183 188 179 217 226 222 217 196 226 233 247 276 301 254 234 245 265 276 266 267 258 246 246 256 255 254 263 270 272 276 278 277
242 244 249 257 263 265 269 261 247 248 249 255 266 283 290 295 297 304 310 298 277 266 263 278 282 291 306 311 316 324 332 335 337 350 340 290 254 244 243 237 232 232 237 241 238 236 234 239 245 239 225 218 217 198 196 196 191 208 205 223 234 216 250 234 228 236 240 262 288 276 256 253 260 263 248 258 268 257 246 253 250 252 265 272 276 281 280 276
243 245 249 254 259 261 267 265 260 254 252 258 270 278 275 283 300 313 318 298 282 277 274 284 295 304 316 325 319 317 331 336 310 346 357 343 275 237 233 234 230 228 233 237 241 242 237 238 242 228 215 218 207 195 202 196 187 188 201 234 225 140 250 239 229 240 246 255 266 273 272 263 264 257 239 250 268 262 254 249 247 258 269 273 277 280 276 273
244 247 248 252 256 259 263 265 268 265 261 260 268 275 271 277 300 317 313 305 300 289 281 285 293 308 323 327 324 328 337 332 196 326 341 351 330 233 218 239 241 245 251 250 251 250 245 237 229 209 210 219 189 192 213 196 190 180 209 249 206 163 236 244 237 247 249 251 252 254 257 264 269 254 239 239 250 262 267 258 258 268 273 274 275 276 276 273
245 248 249 252 254 257 260 262 267 269 266 261 262 269 269 276 298 316 313 316 316 298 285 286 293 310 321 327 332 337 339 297 320 335 334 322 296 267 256 270 278 279 264 256 255 248 241 224 206 194 206 222 193 198 208 190 200 223 213 229 225 210 228 255 258 254 250 242 239 243 255 266 266 260 249 238 246 262 268 267 272 274 272 273 275 274 275 274
247 248 250 251 253 256 258 261 265 267 268 263 258 261 268 284 298 309 315 323 323 307 292 289 299 310 314 330 339 335 330 327 344 350 353 9 313 293 297 300 296 286 270 256 248 236 224 204 193 190 202 219 200 206 203 183 199 235 237 214 231 225 229 253 257 258 259 247 247 255 265 265 256 265 273 254 256 266 272 271 274 276 275 275 274 273 273 274
249 248 249 249 251 253 256 261 265 268 270 267 259 257 263 279 291 301 315 324 324 311 301 300 307 312 317 337 343 338 333 329 344 351 352 8 356 328 318 313 304 292 279 259 242 225 208 193 190 190 202 220 203 199 184 178 197 224 238 222 230 233 237 254 257 261 264 258 260 262 264 261 258 274 288 270 269 273 276 276 277 277 276 273 272 272 272 272
250 250 249 248 248 249 253 258 263 267 272 269 260 259 263 272 283 297 313 320 319 308 300 303 308 313 322 339 344 339 322 304 328 339 333 330 326 321 319 314 304 295 282 252 230 214 201 195 194 194 208 221 206 195 181 193 212 209 223 214 219 245 249 258 260 261 261 260 264 260 262 263 265 286 278 269 272 276 276 275 274 271 269 268 270 272 271 269
249 250 249 248 248 248 250 254 260 265 270 270 265 265 268 273 283 295 306 308 307 304 295 295 301 311 320 335 346 339 285 284 309 326 323 312 308 310 313 310 298 289 277 246 223 212 204 199 201 205 224 226 202 195 184 202 237 194 211 235 245 257 264 265 261 260 261 267 261 249 265 269 274 315 273 268 268 267 267 267 267 263 262 264 267 271 271 271
248 248 248 249 249 248 249 252 258 262 266 268 267 270 273 279 288 295 299 296 298 304 297 287 290 299 310 324 329 295 285 289 293 308 311 306 307 310 308 299 288 277 264 242 227 220 210 202 206 210 225 227 193 186 196 212 250 172 195 253 250 259 268 260 257 261 259 270 258 244 269 271 251 209 254 262 262 261 270 269 266 264 267 270 272 273 274 274
250 248 248 249 250 252 254 256 260 263 263 264 268 275 277 282 288 291 294 293 294 298 296 291 288 290 300 307 295 281 284 281 286 300 298 306 311 305 302 292 281 269 255 238 228 224 208 201 210 213 213 199 177 169 209 207 209 183 258 276 270 271 269 244 240 257 227 256 256 232 275 261 204 217 250 261 264 270 275 272 270 268 271 275 277 278 277 275
251 249 249 251 254 257 258 259 263 264 264 268 274 277 278 281 284 287 290 289 287 288 292 296 294 293 295 294 290 287 276 265 283 300 286 300 309 297 294 285 276 263 243 228 221 213 203 201 211 215 210 191 174 162 172 148 169 195 131 297 294 283 271 189 173 231 204 244 225 197 280 265 199 223 249 263 270 275 275 273 274 274 278 283 284 283 280 275
250 249 250 253 256 260 260 262 264 266 268 272 274 274 275 279 282 286 289 286 282 281 290 298 298 298 287 285 291 291 278 265 284 304 282 291 297 290 288 278 273 258 226 210 205 200 202 205 206 209 207 189 172 157 128 113 197 239 110 255 281 274 241 131 162 212 203 228 188 206 265 275 267 246 248 263 275 281 273 268 273 278 284 288 288 286 282 275
249 250 252 255 257 259 262 264 266 267 269 270 271 271 273 279 283 286 286 284 276 275 290 302 300 298 280 284 293 286 277 273 290 304 280 279 282 283 289 283 269 232 199 190 190 189 193 195 194 194 178 160 151 157 197 236 158 76 269 241 190 233 242 128 143 215 257 83 168 222 264 277 281 277 275 286 288 285 271 271 276 280 286 289 289 288 283 278
249 250 253 257 259 260 263 265 267 270 272 271 270 270 272 277 280 281 281 277 270 268 283 298 295 289 275 289 295 274 275 277 286 288 266 266 267 275 288 281 242 193 183 180 178 178 178 174 177 169 137 144 150 188 256 264 229 161 235 255 217 222 274 319 126 135 296 315 196 228 272 290 276 264 277 290 290 286 280 279 277 278 284 287 287 287 285 282
251 249 252 256 258 261 263 264 267 269 271 269 267 267 271 275 276 278 277 268 259 251 261 284 295 274 258 271 279 268 269 262 261 262 256 253 247 262 276 232 182 172 168 168 166 169 173 166 165 158 127 129 148 192 234 250 239 185 198 247 246 224 275 294 168 104 315 255 234 228 252 271 269 270 276 278 281 282 278 278 278 278 280 283 286 285 284 283
257 251 251 254 257 261 262 264 265 265 265 263 261 262 266 271 272 271 266 252 232 226 245 232 199 281 253 244 256 262 254 240 241 248 249 245 235 249 249 189 171 160 148 153 160 162 166 151 158 177 154 183 181 191 213 238 235 179 203 232 262 224 236 269 267 50 336 257 255 249 254 268 273 274 272 271 274 274 271 275 278 276 276 279 281 282 283 284
263 256 253 255 258 260 262 262 260 260 261 258 258 259 262 265 265 262 253 231 206 198 248 206 187 201 231 211 230 252 251 243 252 257 248 240 232 237 208 174 166 155 148 157 158 154 156 132 167 214 207 198 196 207 220 228 74 111 195 254 284 273 251 263 273 39 337 274 262 254 260 273 280 281 271 265 269 271 273 276 276 274 275 275 276 280 284 286
268 263 256 256 257 260 263 261 258 256 255 255 255 255 253 242 239 246 224 224 227 233 252 235 219 235 244 219 183 181 282 269 268 263 243 229 206 179 152 158 161 158 161 173 148 137 157 192 208 213 209 201 205 218 229 62 75 139 216 260 266 268 273 272 276 70 79 275 263 255 272 278 280 282 276 266 264 267 272 276 275 278 283 277 276 282 286 289
269 267 261 258 256 256 257 258 257 253 251 251 248 243 239 225 228 248 217 237 256 251 250 251 246 246 249 245 227 249 298 292 280 266 255 240 190 176 161 157 163 176 152 73 102 111 168 223 224 211 72 110 190 207 173 159 190 243 254 270 266 253 269 280 334 315 159 264 263 259 287 282 280 282 283 276 263 259 265 271 276 286 293 287 286 290 294 297
267 267 263 258 255 254 252 253 255 253 251 247 242 241 245 248 256 269 258 264 271 255 247 247 247 248 248 248 250 262 274 272 273 261 255 235 197 197 180 164 179 179 114 97 141 145 208 228 222 68 78 97 77 108 180 206 232 232 238 267 267 258 272 268 74 103 176 248 288 357 306 287 282 283 284 279 262 260 259 260 274 282 284 285 291 298 302 304
265 267 264 256 251 251 251 252 251 249 249 246 246 245 249 255 256 262 273 280 273 261 247 238 239 242 244 248 254 255 244 238 249 236 233 218 201 206 189 168 147 115 148 195 195 189 214 238 68 102 163 132 97 115 158 176 229 223 224 254 257 303 288 259 75 110 213 254 295 301 293 279 278 282 282 262 223 252 270 271 275 275 273 276 286 294 297 303
261 264 265 257 246 242 244 247 246 245 247 248 249 247 247 249 245 255 277 279 274 265 246 233 228 231 237 243 243 234 223 227 230 214 215 205 192 197 188 155 133 163 189 200 213 235 227 52 86 149 161 153 129 139 172 194 233 223 216 237 250 241 238 257 348 314 255 219 273 292 281 261 278 300 296 267 184 236 275 282 277 271 270 273 279 285 282 299
255 260 263 258 244 234 233 239 245 248 248 248 246 237 236 233 225 244 288 289 272 253 239 228 203 202 208 214 218 211 211 225 226 212 206 200 189 178 152 145 175 201 178 152 200 256 253 98 156 163 137 162 162 178 199 212 252 242 213 229 245 273 261 270 302 291 267 202 186 309 299 274 318 307 296 303 327 298 286 272 276 277 272 265 260 253 273 335
246 251 254 252 243 230 221 222 236 245 244 243 237 228 223 208 198 209 149 345 274 228 158 189 181 172 179 187 183 181 207 231 219 211 203 199 190 179 155 140 192 236 142 139 189 258 145 118 172 176 151 158 191 230 202 189 243 279 240 234 193 153 241 269 267 263 280 288 169 307 288 287 316 298 289 330 334 314 313 291 286 288 256 226 205 171 48 352
242 238 239 241 239 230 214 200 208 218 232 231 221 218 202 182 176 193 221 298 262 199 143 179 179 173 180 181 167 169 202 165 168 192 192 191 185 188 200 165 156 183 143 158 225 178 117 140 170 156 151 173 214 242 187 180 219 284 62 71 122 159 206 223 245 260 296 314 268 119 280 275 295 287 284 18 320 308 334 10 21 43 121 180 190 192 321 329
242 231 227 227 232 234 225 212 197 186 205 206 184 182 173 169 172 178 246 284 260 120 153 166 159 162 169 174 173 171 91 128 149 171 174 184 182 188 228 211 186 149 145 203 233 239 103 175 184 161 161 202 210 315 170 196 221 49 111 119 118 142 201 193 242 265 340 311 272 125 15 259 258 267 271 24 300 281 21 43 53 61 71 189 230 270 309 320
242 232 223 220 225 232 233 225 199 175 185 171 156 159 157 161 170 154 217 273 188 135 87 149 164 147 111 149 172 184 112 125 123 144 157 177 178 178 229 199 155 112 125 236 251 332 43 222 209 177 186 205 131 54 11 228 232 118 134 128 113 108 84 162 258 271 151 276 263 139 191 271 264 269 270 70 246 230 121 53 86 304 307 300 301 314 323 330
243 236 224 219 218 221 227 222 203 177 166 154 150 150 147 151 162 153 232 259 197 149 99 152 182 157 125 163 172 292 221 185 91 129 144 162 165 152 126 130 125 126 142 254 258 86 74 43 274 228 217 104 107 85 35 19 80 126 151 169 177 152 130 159 275 283 227 247 225 111 110 279 281 272 249 204 205 201 247 284 282 305 316 315 319 326 331 335
245 239 229 220 212 212 216 214 203 179 161 152 146 146 146 140 108 182 216 253 113 145 146 147 165 76 145 181 204 122 173 34 83 155 162 155 152 143 140 138 146 183 203 224 211 145 144 185 182 182 130 113 122 104 68 75 124 166 198 234 247 212 179 187 161 184 240 236 108 80 62 240 253 254 233 238 242 218 230 278 301 311 320 317 320 327 330 333
247 241 234 225 215 209 205 205 196 177 168 158 151 155 160 182 249 209 238 313 80 167 201 140 104 112 126 196 274 148 160 83 61 217 161 161 196 181 193 206 181 203 235 214 199 163 179 191 122 118 152 178 186 141 125 157 181 209 215 216 256 265 237 236 203 190 245 245 79 66 127 220 250 255 265 270 263 245 231 246 277 298 312 311 316 322 328 336
244 242 237 229 221 209 198 197 187 178 174 164 161 161 148 215 223 202 222 272 44 28 49 80 73 79 119 176 196 140 212 212 117 250 155 135 236 212 220 219 167 235 269 179 208 220 203 147 136 160 165 203 223 193 176 176 172 191 194 203 235 248 247 243 237 269 275 331 92 121 192 257 264 263 258 260 269 285 268 253 266 286 297 301 308 318 332 351
240 241 236 229 225 209 198 192 182 179 175 166 165 154 108 199 229 187 215 239 312 21 45 62 100 105 119 193 275 215 212 193 102 174 195 170 216 224 217 195 191 216 80 219 243 224 247 235 154 171 128 160 221 241 349 97 152 175 139 315 254 243 256 261 274 282 304 347 149 162 231 249 252 322 278 260 273 282 274 273 280 284 289 296 306 320 345 13
237 238 233 228 223 210 201 192 180 178 174 163 157 185 183 208 238 209 217 207 188 148 85 21 116 135 214 225 337 285 224 206 75 153 195 193 213 220 200 192 197 193 169 206 215 146 257 274 75 51 33 147 210 126 11 34 149 144 95 234 255 268 281 300 349 336 341 312 239 192 248 251 256 300 294 279 275 267 266 275 280 281 289 297 306 329 12 32
233 234 232 227 218 208 202 193 181 177 172 161 160 227 213 240 217 193 183 130 140 150 136 125 165 175 224 214 174 162 214 306 93 209 209 211 235 224 224 212 189 194 191 187 189 166 253 295 75 88 130 80 5 73 329 296 178 154 174 186 210 9 31 141 170 58 29 272 257 184 263 276 298 293 281 284 319 6 9 257 249 282 302 300 303 341 15 24
230 230 231 224 214 206 198 191 184 179 173 167 199 220 213 250 210 195 162 109 113 140 142 167 196 192 223 224 187 157 162 195 177 220 210 200 232 199 210 254 189 199 214 210 238 233 260 261 91 87 127 90 8 276 171 330 334 169 177 138 81 44 25 173 253 255 204 257 263 206 265 278 304 295 293 304 328 40 80 104 293 301 304 299 305 346 355 356
227 227 232 224 214 204 192 186 185 180 173 172 228 223 205 206 206 187 164 146 111 127 150 201 201 204 214 209 183 146 160 182 164 189 212 201 229 170 172 218 184 197 227 162 255 308 247 241 110 52 349 80 35 245 184 117 5 338 331 27 354 223 187 171 240 257 241 268 275 261 279 267 214 220 272 273 244 208 221 246 282 284 271 274 295 340 349 339
220 217 231 222 211 201 189 186 183 179 175 190 216 214 212 213 233 210 182 173 93 153 181 217 211 327 200 177 143 152 179 189 153 178 221 192 204 177 175 208 167 191 206 160 195 253 165 254 222 93 338 11 144 223 206 163 136 280 260 187 236 290 292 173 173 281 261 269 287 302 312 265 212 198 242 263 246 221 233 244 253 253 244 261 294 333 339 328
202 197 231 213 201 192 184 180 178 178 186 217 201 195 151 221 238 215 195 186 141 167 214 239 186 194 197 197 286 174 184 202 170 184 218 182 221 215 194 188 149 139 135 140 234 249 142 237 242 105 337 265 198 201 214 182 161 180 201 184 178 181 318 267 208 28 282 263 266 283 289 270 235 180 224 254 260 244 238 248 247 247 254 268 293 330 326 311
185 184 231 199 188 181 172 169 172 185 212 254 215 215 170 193 204 197 198 195 186 193 218 211 194 194 177 188 251 184 164 191 191 204 217 194 225 229 188 179 161 147 133 131 211 213 177 209 210 152 199 226 206 35 350 325 155 187 195 193 190 170 156 226 221 167 293 266 247 236 287 279 262 154 222 246 256 252 239 245 249 249 253 263 280 297 301 294
180 191 211 187 181 174 166 162 181 199 225 228 210 197 185 183 173 166 182 193 216 252 205 193 208 194 183 187 206 170 169 186 185 200 226 210 218 230 181 172 163 155 146 138 184 183 141 155 213 210 206 205 4 24 15 346 352 311 264 226 194 182 194 222 225 192 165 190 335 65 285 276 260 139 223 242 252 258 236 234 247 257 259 268 283 290 292 290
189 193 185 179 177 172 166 169 255 193 243 241 206 206 196 180 155 151 164 185 202 196 199 228 198 196 221 206 157 173 196 204 184 187 219 217 215 228 179 166 161 157 156 150 155 151 143 184 224 251 235 127 81 67 80 4 356 245 248 211 199 204 206 237 245 165 179 178 157 133 249 267 267 131 218 249 15 274 249 242 252 273 277 280 287 291 292 292
196 181 172 177 176 172 175 213 198 202 233 218 243 238 213 212 195 172 173 190 191 172 178 216 206 211 236 169 146 187 205 208 202 205 215 202 204 231 169 171 170 175 200 196 162 168 181 197 197 235 271 194 181 154 164 215 221 234 228 181 204 193 111 84 98 144 251 198 166 167 247 260 260 102 253 256 216 252 254 248 249 264 278 285 287 288 290 292
181 169 164 179 179 179 195 240 182 199 212 198 232 218 182 229 220 199 193 190 185 179 175 197 187 162 144 120 91 187 207 217 220 210 205 203 236 326 182 184 183 194 233 212 161 171 188 205 179 199 235 230 221 206 198 171 171 212 214 184 198 186 162 168 166 191 233 190 165 191 240 260 277 278 267 263 261 271 271 261 249 250 269 285 289 289 291 293
183 188 157 167 185 195 221 244 218 212 200 194 225 206 190 217 224 202 202 199 192 187 172 138 153 118 117 160 157 209 222 234 233 186 223 218 237 310 203 193 198 213 238 185 167 166 147 235 213 221 236 237 242 225 150 135 147 173 189 184 192 194 186 183 177 201 206 167 184 216 233 263 281 278 272 270 268 273 276 277 274 261 264 279 288 292 296 297
200 205 175 157 187 210 237 247 227 218 186 183 184 187 198 207 206 190 201 211 202 186 175 174 171 176 182 165 167 222 219 212 141 185 232 222 231 351 204 216 226 224 228 176 169 164 143 234 222 229 243 251 271 108 149 184 192 176 173 177 187 193 189 192 207 195 142 137 229 232 225 245 267 271 273 276 273 270 272 280 290 292 289 289 292 297 298 298
204 211 191 184 185 185 208 224 215 205 201 190 189 179 189 196 195 190 195 211 212 188 191 215 205 204 192 160 163 202 178 190 227 203 206 213 207 187 170 253 249 215 203 188 175 168 224 245 215 216 243 257 270 176 168 217 247 183 182 183 184 189 192 202 215 197 160 199 241 243 227 232 248 257 262 267 268 270 277 288 294 294 291 292 297 300 297 297
211 239 206 196 205 184 191 201 197 196 203 200 204 195 180 195 201 196 171 122 206 214 202 216 223 206 186 168 182 198 178 193 221 210 186 195 199 188 185 198 204 200 194 189 184 190 215 228 150 174 255 266 262 206 188 217 237 224 219 208 191 194 198 205 218 213 204 226 251 259 257 253 250 252 258 262 265 273 289 294 291 285 284 290 295 294 292 295
210 223 200 198 225 202 194 194 175 185 202 198 209 207 187 209 208 201 170 162 187 203 187 222 230 192 172 189 196 213 219 209 213 211 178 177 189 203 215 201 144 167 202 191 185 211 215 218 99 110 267 271 258 188 184 218 233 230 229 227 215 207 202 211 226 223 220 238 252 258 269 270 263 257 256 260 269 284 290 284 280 279 283 290 289 284 286 292
211 212 201 204 223 180 185 188 151 175 201 191 197 191 196 226 216 202 212 206 203 184 170 209 225 168 165 203 197 223 234 222 217 212 175 178 191 189 199 182 138 151 183 189 174 171 201 222 86 109 251 266 258 129 147 166 245 249 247 239 224 210 203 211 217 211 212 226 240 256 266 260 258 259 255 257 267 274 271 268 273 279 283 285 280 280 285 290
214 217 218 224 231 185 179 156 149 191 203 182 190 194 203 222 211 193 213 221 215 213 200 197 195 141 166 204 205 224 235 229 228 232 198 194 204 193 195 185 159 157 164 169 168 163 187 200 141 154 233 259 343 98 121 104 274 246 231 225 215 207 212 220 223 219 217 218 220 232 237 240 251 262 269 270 259 250 254 260 269 279 283 284 282 281 286 291